Location: Czu?�w
(50.1404°N, 18.9919°E)
Time: 02:55:32
(UTC+00:00)

Cosmos 1992 Rocket - Pass Details

Date: 27 October 2020
Orbit: 759 x 765 km, 74.0° (Epoch: 27 November)

Event Time Altitude Azimuth Distance (km) Brightness Sun altitude
Rises 17:09:09 0° 182° (S) 3,207 7.3 -16.6°
Reaches altitude 10° 17:11:35 10° 176° (S) 2,285 6.4 -17.0°
Maximum altitude 17:16:29 44° 105° (ESE) 1,046 4.2 -17.8°
Enters shadow 17:19:35 21° 44° (NE) 1,666 5.4 -18.3°
